Weather History for Grant County, OR

Change the Weather History Date:

Monday, March 10, 2014

  Actual Average (KBNO) Record (KBNO)
Temperature  
Mean Temperature 42 °F 36 °F  
Max Temperature 48 °F 48 °F 65 °F (2005)
Min Temperature 35 °F 25 °F -3 °F (1951)
Degree Days  
Heating Degree Days 24 29  
Month to date heating degree days 305  
Since 1 July heating degree days 5833  
Cooling Degree Days 0 0  
Month to date cooling degree days 0  
Year to date cooling degree days 0  
Moisture  
Dew Point 35 °F    
Average Humidity 85    
Maximum Humidity 100    
Minimum Humidity 66    
Precipitation  
Precipitation 0.22 in 0.04 in 0.79 in (1967)
Month to date precipitation 0.38  
Year to date precipitation 2.59  
Sea Level Pressure  
Sea Level Pressure 30.07 in    
Wind  
Wind Speed 9 mph (West)    
Max Wind Speed 23 mph    
Max Gust Speed 37 mph    
Visibility 8 miles    
Events Rain , Snow    
T = Trace of Precipitation, MM = Missing Value Source: NWS Daily Summary

Daily Weather History Graph

Daily Weather History Graph

Search for Another Location

Airport:

Trip Planner

Search our weather history database for the weather conditions in past years. The results will help you decide how hot, cold, wet, or windy it might be!

Date:

Astronomy

Mar. 10, 2014 Rise Set
Actual Time 7:17 AM PDT 6:55 PM PDT
Civil Twilight 6:48 AM PDT 7:24 PM PDT
Nautical Twilight 6:14 AM PDT 7:58 PM PDT
Astronomical Twilight 5:40 AM PDT 8:32 PM PDT
Moon 1:34 PM PDT (3/10) 3:41 AM PDT (3/10)
Length of Visible Light 12h 36m
Length of Day
11h 38m
Waxing Gibbous, 71% of the Moon is Illuminated
Mar 10
Waxing Gibbous
Mar 16
Full
Mar 23
Last Quarter
Mar 30
New
Apr 7
First Quarter

Hourly Weather History & Observations

Time (PDT) Temp. Windchill Dew Point Humidity Pressure Visibility Wind Dir Wind Speed Gust Speed Precip Events Conditions
12:16 AM 48.2 °F - 46.4 °F 93% 29.91 in 4.0 mi West 4.6 mph - N/A Rain Light Rain
12:36 AM 48.2 °F - 46.4 °F 93% 29.91 in 0.5 mi West 6.9 mph - N/A Rain Light Rain
12:56 AM 44.6 °F 35.9 °F 44.6 °F 100% 29.92 in 5.0 mi WNW 23.0 mph 36.8 mph 0.01 in Rain Heavy Rain
1:16 AM 42.8 °F 36.2 °F 41.0 °F 93% 29.94 in 5.0 mi West 12.7 mph - 0.11 in Rain Heavy Rain
1:38 AM 42.8 °F 36.6 °F 39.2 °F 87% 29.96 in 7.0 mi West 11.5 mph - 0.13 in Rain Light Rain
1:56 AM 41.0 °F 34.3 °F 39.2 °F 93% 29.96 in 10.0 mi West 11.5 mph - N/A Rain Light Rain
2:16 AM 41.0 °F 37.1 °F 39.2 °F 93% 29.96 in 10.0 mi WSW 5.8 mph - 0.01 in Rain Rain
2:56 AM 39.2 °F 34.2 °F 37.4 °F 93% 29.95 in 10.0 mi WSW 6.9 mph - N/A Rain Light Rain
3:16 AM 39.2 °F 35.0 °F 37.4 °F 93% 29.95 in 10.0 mi SW 5.8 mph - 0.01 in Rain Light Rain
3:36 AM 39.2 °F 35.0 °F 37.4 °F 93% 29.93 in 10.0 mi South 5.8 mph - 0.01 in Rain Light Rain
3:56 AM 39.2 °F 35.9 °F 37.4 °F 93% 29.93 in 10.0 mi SW 4.6 mph - N/A Rain Light Rain
4:18 AM 39.2 °F 35.9 °F 37.4 °F 93% 29.93 in 10.0 mi SSW 4.6 mph - N/A Rain Light Rain
4:56 AM 39.2 °F 35.0 °F 35.6 °F 87% 29.92 in 10.0 mi SSW 5.8 mph - N/A Rain Light Rain
5:36 AM 39.2 °F 33.0 °F 35.6 °F 87% 29.94 in 7.0 mi West 9.2 mph - 0.01 in Rain Light Rain
5:56 AM 37.4 °F 29.3 °F 35.6 °F 93% 29.95 in 7.0 mi WNW 12.7 mph - 0.01 in Rain Light Rain
6:16 AM 37.4 °F 30.8 °F 37.4 °F 100% 29.96 in 4.0 mi WNW 9.2 mph - 0.03 in Rain Rain
6:36 AM 37.4 °F 29.8 °F 37.4 °F 100% 29.97 in 7.0 mi West 11.5 mph - 0.04 in Rain Rain
6:56 AM 37.4 °F 30.3 °F 35.6 °F 93% 29.97 in 10.0 mi WSW 10.4 mph - N/A   Drizzle
7:36 AM 37.4 °F 31.4 °F 35.6 °F 93% 29.98 in 7.0 mi West 8.1 mph - N/A Rain Rain
7:58 AM 37.4 °F 32.1 °F 35.6 °F 93% 29.98 in 7.0 mi WSW 6.9 mph - N/A Rain Light Rain
8:16 AM 37.4 °F 30.8 °F 35.6 °F 93% 29.99 in 7.0 mi WSW 9.2 mph - N/A Rain Light Rain
8:36 AM 37.4 °F 29.8 °F 35.6 °F 93% 29.99 in 7.0 mi West 11.5 mph - N/A Rain Light Rain
8:56 AM 35.6 °F 28.6 °F 35.6 °F 100% 29.99 in 5.0 mi WSW 9.2 mph - N/A Rain Rain
9:16 AM 35.6 °F 28.6 °F 35.6 °F 100% 30.00 in 5.0 mi West 9.2 mph - N/A Rain Light Rain
9:36 AM 35.6 °F 29.9 °F 33.8 °F 93% 30.01 in 3.0 mi West 6.9 mph - N/A Rain Light Rain
10:18 AM 37.4 °F 33.8 °F 35.6 °F 93% 30.02 in 5.0 mi SW 4.6 mph - N/A Rain Light Rain
10:36 AM 39.2 °F 33.0 °F 37.4 °F 93% 30.02 in 10.0 mi WSW 9.2 mph - N/A   Mostly Cloudy
11:16 AM 39.2 °F 32.5 °F 35.6 °F 87% 30.04 in 7.0 mi West 10.4 mph - N/A Rain Light Rain
11:36 AM 41.0 °F 35.8 °F 37.4 °F 87% 30.04 in 10.0 mi West 8.1 mph 17.3 mph N/A   Overcast
12:16 PM 44.6 °F 38.1 °F 39.2 °F 81% 30.05 in 10.0 mi West 13.8 mph - N/A   Overcast
12:38 PM 42.8 °F 35.4 °F 35.6 °F 76% 30.05 in 10.0 mi West 15.0 mph - N/A   Mostly Cloudy
1:16 PM 44.6 °F 37.4 °F 33.8 °F 66% 30.04 in 10.0 mi West 16.1 mph 21.9 mph N/A   Mostly Cloudy
1:36 PM 41.0 °F 31.9 °F 33.8 °F 76% 30.05 in 10.0 mi WSW 19.6 mph 32.2 mph N/A   Light Drizzle
1:58 PM 44.6 °F 39.2 °F 37.4 °F 76% 30.05 in 10.0 mi WSW 10.4 mph 16.1 mph N/A   Overcast
2:16 PM 42.8 °F 35.8 °F 35.6 °F 76% 30.05 in 10.0 mi West 13.8 mph - N/A Rain Light Rain
2:38 PM 39.2 °F 33.0 °F 35.6 °F 87% 30.07 in 10.0 mi West 9.2 mph - N/A   Overcast
2:58 PM 39.2 °F 31.2 °F 35.6 °F 87% 30.08 in 10.0 mi WNW 13.8 mph 19.6 mph N/A Rain Light Rain
3:16 PM 39.2 °F 31.6 °F 35.6 °F 87% 30.09 in 10.0 mi West 12.7 mph 19.6 mph N/A   Overcast
3:36 PM 39.2 °F 34.2 °F 35.6 °F 87% 30.10 in 10.0 mi NNW 6.9 mph - N/A Rain Light Rain
3:56 PM 37.4 °F 29.8 °F 33.8 °F 87% 30.11 in 2.0 mi WNW 11.5 mph - N/A Snow Light Snow
4:16 PM 39.2 °F 34.2 °F 35.6 °F 87% 30.11 in 10.0 mi West 6.9 mph - 0.01 in Rain Light Rain
4:38 PM 41.0 °F 35.8 °F 35.6 °F 81% 30.11 in 10.0 mi WSW 8.1 mph - 0.01 in   Mostly Cloudy
5:16 PM 37.4 °F 32.1 °F 32.0 °F 81% 30.12 in 5.0 mi WNW 6.9 mph 18.4 mph N/A Snow Light Snow
5:36 PM 41.0 °F 39.0 °F 32.0 °F 70% 30.13 in 10.0 mi West 3.5 mph - N/A   Scattered Clouds
5:58 PM 39.2 °F 31.2 °F 33.8 °F 81% 30.16 in 10.0 mi NNW 13.8 mph 17.3 mph N/A   Mostly Cloudy
6:16 PM 39.2 °F 32.5 °F 30.2 °F 70% 30.16 in 10.0 mi WNW 10.4 mph - N/A   Mostly Cloudy
6:38 PM 39.2 °F 34.2 °F 32.0 °F 75% 30.17 in 10.0 mi West 6.9 mph - N/A   Clear
6:58 PM 39.2 °F 32.5 °F 33.8 °F 81% 30.19 in 10.0 mi WNW 10.4 mph - N/A   Mostly Cloudy
7:16 PM 39.2 °F 32.5 °F 32.0 °F 75% 30.20 in 10.0 mi WNW 10.4 mph 20.7 mph N/A   Light Drizzle
7:56 PM 39.2 °F 30.8 °F 30.2 °F 70% 30.21 in 10.0 mi West 15.0 mph - N/A   Overcast
8:16 PM 39.2 °F 30.8 °F 30.2 °F 70% 30.22 in 10.0 mi West 15.0 mph 19.6 mph N/A   Mostly Cloudy
8:36 PM 39.2 °F 30.8 °F 30.2 °F 70% 30.22 in 10.0 mi West 15.0 mph - N/A   Scattered Clouds
8:56 PM 37.4 °F 30.3 °F 30.2 °F 75% 30.23 in 10.0 mi West 10.4 mph - N/A   Scattered Clouds
9:16 PM 37.4 °F 32.8 °F 30.2 °F 75% 30.24 in 10.0 mi WNW 5.8 mph - N/A   Mostly Cloudy
9:36 PM 37.4 °F 32.8 °F 30.2 °F 75% 30.25 in 10.0 mi West 5.8 mph - N/A   Overcast
9:56 PM 37.4 °F 32.8 °F 30.2 °F 75% 30.25 in 10.0 mi West 5.8 mph - N/A   Overcast
10:36 PM 37.4 °F 30.3 °F 30.2 °F 75% 30.27 in 10.0 mi West 10.4 mph - N/A   Overcast
10:56 PM 37.4 °F 31.4 °F 30.2 °F 75% 30.28 in 10.0 mi West 8.1 mph - N/A   Overcast
11:18 PM 37.4 °F 34.9 °F 30.2 °F 75% 30.29 in 10.0 mi WSW 3.5 mph - N/A   Overcast
11:36 PM 37.4 °F 33.8 °F 30.2 °F 75% 30.30 in 10.0 mi WSW 4.6 mph - N/A   Overcast
11:56 PM 37.4 °F 31.4 °F 30.2 °F 75% 30.30 in 10.0 mi West 8.1 mph - N/A   Overcast